全球星 M094星 (GLOBALSTAR M094)

导读

GLOBALSTAR M094是全球星系统(GlobalStar)中的低轨通信卫星,由美国主导运营,于2013年2月6日发射入轨。作为第二代全球星星座的组成部分,它运行在高度约1414千米的近地轨道,轨道倾角52°,可支持全球范围内数字语音、数据传输、短信息及漫游通信服务,尤其为偏远地区、海洋和应急场景提供可靠移动通信连接,助力全球无缝覆盖的卫星通信网络建设。

基本信息
目录编号:
39074
目录名称:
GLOBALSTAR M094
国际标识:
2013-005C
轨道中心:
EARTH
卫星名称:
全球星 M094星
卫星全名:
全球星 M094星 (GLOBALSTAR M094)
卫星状态:
在轨 (已飞行4906 天)
发射日期:
2013-02-06 UTC
国别 :
(GLOB)
星等 :
--
轨道信息
数据来源 国际轨道数据 AOE轨道数据
星历时间 2026-07-13T04:53:56+0800
1天前
查看轨道信息
2026-07-10T00:00:00+0800
4天前
查看轨道信息
半长轴 7791.751km 7791.752km
偏心率 0.0000948 0.000076
轨道倾角 51.997° 51.996°
近地点辐角 58.272° 46.718°
升交点赤经 72.600° 82.357°
平近点角 301.824° 146.270°
近地点 1412.875km 1413.022km
远地点 1414.353km 1414.208km
周期 114.081分钟 114.081分钟
每日圈数 12.62264 12.622637
详细信息
固有亮度:
5
最大亮度:
7.2
平衡模式:
三轴稳定
覆盖范围:
全球
运营商:
全球星公司
运营商所在国:
美国
使用方式:
暂无
卫星简介
全球星星座由48颗卫星加8颗备份星组成。这些卫星分布在8个倾角为52度的圆形轨道平面上,每个轨道平面6颗卫星,另有1 颗备用星。轨道高度约为1414km,传输时延和处理时延小于300ms,整个系统的覆盖区为南北纬70度以内的地区。该卫星已退役。
2D轨道图
3D轨道图
轨道高度分析图
轨道倾角分析图
轨道综合分析图
查看轨道综合分析图